SCP
0 0 0 0 0 0 0 0 0 0 0 0 0 0 0 0 0 0 0 0 0 0 0 0 0 0 0 0 0 0 0 0 0 0 0 0 0 0 0 0 0 0 0
0 0 0 0 0 0 0 0 0 0 0 0 0 0 0 0 0 0 0 0 0 0 0 0 0 0 0 0 0 0 0 0 0 0 0 0 0 0 0 0 0 0 0
0 0 0 0 0 0 0 0 0 0 0 0 0 0 0 0 0 0 0 0 0 0 0 0 0 0 0 0 0 0 0 0 0 0 0 0 0 0 0 0 0 0 0
0 0 0 0 0 0 0 0 0 0 0 0 0 0 0 0 0 0 0 0 0 0 0 0 0 0 0 0 0 0 0 0 0 0 0 0 0 0 0 0 0 0 0
0 0 0 0 0 0 0 0 0 0 0 0 0 0 0 0 0 0 0 0 0 0 0 0 0 0 0 0 0 0 0 0 0 0 0 0 0 0 0 0 0 0 0
0 0 0 0 0 0 0 0 0 0 0 0 0 0 0 0 0 0 0 0 0 0 0 0 0 0 0 0 0 0 0 0 0 0 0 0 0 0 0 0 0 0 0
0 0 0 0 0 0 0 0 0 0 0 0 0 0 0 0 0 0 0 0 0 0 0 0 0 0 0 0 0 0 0 0 0 0 0 0 0 0 0 0 0 0 0
0 0 0 0 0 0 0 0 0 0 0 0 0 0 0 0 0 0 0 0 0 0 0 0 0 0 0 0 0 0 0 0 0 0 0 0 0 0 0 0 0 0 0
0 0 0 0 0 0 0 0 0 0 0 0 0 0 0 0 0 0 0 0 0 0 0 0 0 0 0 0 0 0 0 0 0 0 0 0 0 0 0 0 0 0 0
0 0 0 0 0 0 0 0 0 0 0 0 0 0 0 0 0 0 0 0 0 0 0 0 0 0 0 0 0 0 0 0 0 0 0 0 0 0 0 0 0 0 0
0 0 0 0 0 0 0 0 0 0 0 -0 -0 -0 -0 -0 -0 0 0 0 0 0 0 0 0 0 0 0 0 0 0 0 0 0 0 0 0 0 0 0 0 0 0
0 0 0 0 0 0 0 0 0 0 -0 -0 -0 -0 -0 -0 -0 0 0 0 0 0 0 0 0 0 0 0 0 0 0 0 0 0 0 0 0 0 0 0 0 0 0
0 0 0 0 0 0 0 0 0 -0 -0 -0 -0 -0 -0 0 0 0 0 0 0 0 0 0 0 0 0 0 0 0 0 0 0 0 0 0 0 0 0 0 0 0 0
0 0 0 0 0 0 0 0 0 -0 -0 -0 -0 0 0 0 0 0 -0 -0 0 0 0 0 0 0 0 0 0 0 0 0 0 0 0 0 0 0 0 0 0 0 0
0 0 0 0 0 0 0 0 0 0 -0 -0 0 0 0 0 0 0 0 -0 -0 0 0 0 0 0 0 0 0 0 0 0 0 0 0 0 0 0 0 0 0 0 0
0 0 0 0 0 0 0 0 0 0 0 0 0 0 0 0 0 0 0 0 0 0 0 0 0 0 0 0 0 0 0 0 0 0 0 0 0 0 0 0 0 0 0
0 0 0 0 0 0 0 0 0 0 0 0 -0 -0 -0 0 0 0 0 0 0 0 0 0 0 0 0 0 0 0 0 0 0 0 0 0 0 0 0 0 0 0 0
0 0 0 0 0 0 0 0 0 0 0 0 -0 -0 -0 -0 0 0 0 0 0 0 0 0 0 0 0 0 0 0 0 0 0 0 0 0 0 0 0 0 0 0 0
0 0 0 0 0 0 0 0 0 0 0 0 -0 -0 -0 -0 0 0 0 0 0 0 0 0 0 0 0 0 0 0 0 0 0 0 0 0 0 0 0 0 0 0 0
0 0 0 0 0 0 0 0 0 0 0 0 -0 -0 -0 -0 0 0 0 0 0 0 0 0 0 0 0 0 0 0 0 0 0 0 0 0 0 0 0 0 0 0 0
0 0 0 0 0 0 0 0 0 0 0 0 -0 -0 -0 0 0 0 0 0 0 0 0 0 0 0 0 0 0 0 0 0 0 0 0 0 0 0 0 0 0 0 0
0 0 0 0 0 0 0 0 0 0 0 0 0 -0 0 0 0 0 0 0 0 0 0 0 0 0 0 0 0 0 0 0 0 0 0 0 0 0 0 0 0 0 0
-0 -0 0 0 0 0 0 0 0 0 0 0 0 0 0 0 0 0 0 0 0 0 0 0 0 0 0 0 0 0 0 0 0 0 0 0 0 0 0 0 0 0 0
-0 -0 0 0 0 0 0 0 0 0 0 0 0 0 0 0 0 0 0 0 0 0 0 0 0 0 0 0 0 0 0 0 0 0 0 0 0 0 0 0 0 0 0
0 0 -0 0 0 0 0 0 0 0 0 0 0 0 0 0 0 0 0 0 0 0 0 0 0 0 0 0 0 0 0 0 0 0 0 0 0 0 0 0 0 0 0
0 -0 -0 -0 0 0 0 0 0 0 0 0 0 0 0 0 0 0 0 0 0 0 0 0 0 0 0 0 0 0 0 0 0 0 0 0 0 0 0 0 0 0 0
Wind_Speed
1 2 9 10 10 10 10 11 11 12 12 12 13 13 12 12 12 12 12 11 11 10 10 9 9 8 8 8 8 7 7 7 6 6 6 7 7 7 7 7 6 4 6
4 4 9 10 10 11 11 11 12 12 12 12 12 12 12 11 11 11 11 11 10 9 9 9 8 8 7 7 6 6 6 6 5 5 5 6 6 7 7 6 6 4 6
6 5 7 11 11 12 12 12 12 12 12 11 11 11 11 10 10 10 9 9 9 9 9 8 7 6 6 5 5 6 6 5 4 4 4 2 3 6 6 6 6 6 6
7 5 7 11 12 12 12 12 12 11 11 11 11 10 10 10 9 9 8 8 8 8 8 7 6 5 5 5 5 5 5 5 5 4 2 1 2 5 6 6 6 6 6
7 5 7 12 12 12 12 12 11 11 10 10 10 9 9 9 8 8 7 7 7 6 6 5 5 5 4 4 4 5 6 6 5 4 2 2 2 4 6 5 5 6 5
7 5 8 13 13 12 12 11 11 10 9 9 8 8 7 7 7 7 6 6 5 5 4 4 3 3 3 3 4 5 6 5 4 2 2 2 1 4 5 5 5 5 5
6 5 7 13 12 12 11 11 10 9 8 7 7 6 6 5 5 5 5 5 4 4 3 3 2 2 2 3 4 5 5 5 3 2 1 1 2 5 5 5 5 5 5
7 5 6 12 12 11 10 9 8 7 7 6 6 5 4 4 4 4 4 4 4 3 3 2 2 2 2 3 4 4 5 4 3 2 1 1 4 5 5 4 4 4 5
7 5 4 4 7 9 9 8 7 6 5 5 4 4 3 3 3 3 3 3 3 3 2 1 1 2 3 4 4 4 4 3 2 0 1 1 4 6 5 4 4 4 4
5 5 4 3 3 3 3 6 6 5 4 3 2 2 2 2 1 0 1 1 2 2 2 2 3 4 4 4 5 4 4 3 2 1 1 2 5 6 5 4 4 4 4
5 4 4 4 3 3 2 3 3 2 1 2 2 2 1 1 1 1 2 1 2 3 4 4 4 4 5 5 5 4 3 1 1 1 1 4 6 5 5 4 4 4 4
6 5 4 4 4 3 2 2 0 1 2 2 2 2 1 0 1 1 3 3 4 4 5 5 4 5 3 2 3 3 1 1 1 1 1 5 5 5 5 4 4 3 3
6 6 5 5 4 3 1 2 1 1 1 2 2 2 2 2 1 2 2 3 4 4 3 5 4 2 2 1 1 2 2 2 1 1 2 5 5 5 4 4 4 4 3
5 6 5 5 4 3 3 2 1 1 1 2 2 2 2 2 2 2 1 2 2 2 2 3 2 3 2 2 2 3 3 2 2 1 1 5 5 5 5 5 4 4 4
5 5 5 5 5 4 4 2 3 2 2 3 3 3 3 2 2 2 2 2 2 2 2 3 3 4 3 3 3 4 4 4 3 2 2 4 5 5 6 5 5 4 4
6 5 5 6 5 5 4 3 3 3 3 4 4 4 4 3 2 3 3 3 3 3 2 2 3 3 3 3 4 4 4 4 3 3 2 3 5 6 6 6 5 5 5
6 6 6 6 6 7 6 5 4 3 4 4 4 4 4 4 3 3 3 3 3 3 3 3 4 4 3 4 4 4 4 4 3 3 3 2 3 5 6 6 6 6 7
6 6 6 8 7 7 6 5 4 4 4 4 3 4 5 5 4 4 3 3 3 3 3 3 3 4 4 4 4 4 4 4 4 4 3 3 3 3 4 7 8 8 8
7 8 7 7 7 6 6 5 4 4 4 3 3 4 4 5 5 4 3 3 4 4 4 3 4 3 3 3 4 4 4 4 3 4 4 3 3 3 3 5 8 9 9
7 7 7 6 6 6 5 4 4 4 3 3 3 4 4 4 5 4 4 4 4 4 4 4 4 4 3 2 4 5 4 4 4 4 3 3 3 4 4 4 4 6 11
7 7 6 6 5 5 3 3 3 2 2 2 2 4 4 4 5 5 4 4 4 4 4 4 3 5 4 2 4 4 4 5 5 5 4 4 4 4 4 4 4 4 4
7 6 6 6 5 5 3 3 3 2 1 1 2 3 4 4 4 4 4 3 4 4 5 5 4 3 3 4 3 3 3 5 5 5 4 4 4 3 4 4 4 4 4
8 7 7 6 5 5 5 4 3 3 3 3 3 2 3 4 4 4 4 4 4 4 4 4 3 4 3 4 3 3 3 1 2 4 5 5 5 4 4 4 5 4 5
8 7 7 6 6 5 6 5 5 3 2 1 1 1 2 3 4 4 4 4 4 3 4 4 4 3 4 3 3 3 2 3 3 1 3 4 5 5 5 5 5 4 4
8 8 7 7 5 5 6 6 6 4 2 1 1 2 2 3 3 4 4 4 4 3 4 5 5 5 3 3 2 2 3 3 3 3 1 3 4 4 4 4 4 4 4
7 7 7 7 5 5 5 5 6 6 4 4 3 2 1 2 2 3 4 4 4 3 4 4 4 5 4 4 4 3 3 2 2 2 2 1 2 3 3 3 4 4 3
Wind_Direction
73 91 103 103 101 99 98 97 96 94 93 92 90 86 85 84 84 84 83 82 79 77 75 75 74 75 74 73 71 70 69 71 75 77 78 78 77 77 79 80 76 64 66
129 104 106 105 103 101 99 97 94 94 92 90 89 87 86 85 83 82 81 80 78 77 75 72 70 71 72 69 64 60 58 56 66 72 73 76 79 78 80 78 77 73 64
110 98 101 103 103 102 101 97 94 92 90 90 90 88 87 86 84 81 79 79 78 76 75 72 69 66 67 63 53 49 44 38 50 64 74 81 82 85 82 77 74 67 62
111 102 104 104 103 101 100 98 95 93 92 91 91 90 89 87 84 80 77 76 76 73 70 68 67 63 59 53 42 33 26 23 36 58 66 90 92 91 86 80 71 65 56
105 102 111 109 106 103 101 98 96 95 95 94 93 91 89 87 82 77 74 74 76 72 68 62 58 55 51 41 25 16 20 22 46 57 61 80 81 94 91 85 73 66 57
113 111 117 113 110 107 104 101 99 98 98 98 97 94 90 87 86 82 77 73 71 70 65 58 49 45 39 21 7 6 14 21 54 58 81 107 107 97 93 86 77 68 59
123 123 125 120 118 115 112 109 106 105 103 101 98 95 92 90 87 82 78 74 70 67 60 55 45 33 17 358 351 357 9 27 62 70 71 114 119 104 93 86 79 71 63
137 136 132 129 127 123 120 117 116 114 110 106 101 99 98 91 84 82 82 77 71 62 57 48 33 15 352 336 335 344 1 21 69 79 87 131 126 108 96 88 78 72 66
142 139 136 137 133 134 132 129 125 119 114 110 104 98 102 106 91 86 89 80 68 56 55 33 354 336 329 326 328 338 357 25 70 164 126 126 120 106 99 91 79 71 64
147 149 154 153 145 144 142 142 132 125 119 108 102 106 126 136 134 104 88 71 45 25 5 339 321 316 317 322 325 334 10 39 67 86 107 135 116 106 98 88 81 73 66
157 168 170 171 173 172 171 161 138 116 81 45 26 23 48 351 311 299 297 327 358 352 345 339 334 326 326 334 336 352 37 67 91 98 128 123 114 105 96 86 80 75 70
172 181 179 176 180 184 182 127 57 19 8 5 11 26 37 56 293 305 321 344 356 358 349 344 343 339 345 348 351 22 71 104 103 108 127 118 108 99 89 84 85 76 77
173 174 174 176 173 169 155 125 88 21 10 11 23 50 66 60 34 18 3 353 355 2 358 353 355 356 359 359 12 51 88 100 102 90 110 110 101 89 78 77 78 73 72
144 154 157 156 151 145 120 108 108 80 48 36 23 53 75 66 50 33 20 4 3 360 6 3 0 5 21 36 73 77 80 95 105 93 95 97 90 79 67 66 65 69 67
124 132 141 136 129 122 105 98 90 74 59 48 40 40 68 80 65 45 30 20 8 11 20 13 14 32 38 42 70 87 87 96 104 93 72 83 79 66 59 57 60 63 65
124 122 113 112 114 106 99 94 85 73 62 51 45 42 61 74 69 54 40 26 15 16 24 31 32 43 40 50 57 67 80 87 84 82 62 50 56 55 52 52 57 57 60
129 119 115 112 102 98 99 96 85 74 69 58 47 46 54 60 63 63 50 32 16 21 33 37 35 42 49 54 54 59 72 78 82 77 68 48 39 45 45 43 45 51 55
128 121 118 113 103 101 100 95 88 78 71 59 49 46 48 51 58 63 52 32 22 34 35 41 36 44 42 49 54 49 55 63 69 74 66 54 42 38 34 40 43 44 50
133 125 114 114 110 104 99 95 89 79 68 57 48 44 43 48 52 61 53 32 34 41 32 41 42 50 52 51 67 54 43 48 49 63 58 49 43 44 34 36 40 39 43
132 126 123 117 114 107 96 86 72 59 48 47 49 46 48 47 50 55 53 38 42 46 34 38 48 44 55 57 70 57 36 32 39 45 46 39 38 44 42 38 32 35 43
132 129 131 128 129 121 110 103 95 79 48 40 45 50 50 50 53 56 52 42 46 52 41 41 51 50 39 42 66 42 20 25 40 35 31 37 35 34 40 40 39 36 32
148 143 138 137 136 135 134 134 133 127 103 67 30 37 42 51 54 65 62 55 48 54 45 43 51 57 36 37 85 77 32 10 10 21 25 38 38 32 35 42 43 43 35
154 156 151 150 138 136 131 109 88 67 49 35 28 23 17 45 55 63 68 68 57 61 57 51 59 74 63 32 54 113 113 114 346 357 15 25 30 34 29 36 42 39 38
162 159 150 147 138 135 130 127 129 127 133 180 172 52 20 37 53 61 67 69 64 58 56 51 61 69 82 55 30 47 99 139 120 28 354 4 23 35 34 43 40 37 34
158 156 149 142 138 136 132 134 129 128 144 134 98 81 46 27 39 56 66 70 66 60 58 56 57 59 68 78 65 60 61 55 71 109 49 351 4 10 23 31 32 28 27
153 149 146 142 143 140 135 135 135 140 138 125 119 111 66 25 25 44 64 65 64 62 60 59 61 64 65 70 67 65 81 84 76 93 103 28 5 348 8 19 24 18 17